Location: Kernascl�den
(48.0062°N, 3.3198°W)
Time: 21:36:36
(UTC+00:00)

Cosmos 1898 Rocket - Pass Details

Date: 21 January 2021
Orbit: 754 x 783 km, 74.0° (Epoch: 03 March)

Event Time Altitude Azimuth Distance (km) Brightness Sun altitude
Rises 19:21:10 0° 196° (SSW) 3,240 7.0 -23.8°
Reaches altitude 10° 19:23:32 10° 194° (SSW) 2,313 6.2 -24.2°
Maximum altitude 19:28:47 76° 110° (ESE) 796 3.3 -25.1°
Enters shadow 19:28:56 75° 91° (E) 798 3.3 -25.1°
